Tracking 31027 objects as of 19-Jul-2025
HD Live streaming from Space Station
objects crossing your sky now

OBJECT R

Track OBJECT R now!
10-day predictions


NORAD ID: 51839
Int'l Code: 2022-019R
Perigee: 447.4 km
Apogee: 451.6 km
Inclination: 97.4 °
Period: 93.4 minutes
Semi major axis: 6820 km
RCS: Unknown
Launch date: February 27, 2022
Source: People's Republic of China (PRC)
Launch site: Wenchang Satellite Launch Center (WSC)
Your satellite tracking list
FENGYUN 1C DEB
Track 1 satellite(s)




NASA's NSSDC Master Catalog

Two Line Element Set (TLE):
1 51839U 22019R   25199.88471470  .00020115  00000-0  48504-3 0  9998
2 51839  97.3941 279.7211 0003095 297.2001  62.8930 15.41256706188101
Source of the keplerian elements: AFSPC